Content
SEND FEEDBACK

Daily
Averages
Monthly
Summary
United States of America

PALOMAR MOUNTAIN, CALIFORNIA


Home > North America > United States > California
Elevation: 5070 feet     Latitude: 33 21N     Longitude: 116 51W

WEATHER
 
SELECT A DAY
Number of Records: 167,471;   Date Range: 1/1/95 - 9/28/14
 
SHARE

PRINT THIS DATA

[ ← Previous Day ]
WEATHER ALMANAC - JANUARY 3, 2013
[ Next Day → ]
[ °C ]   °F
Weather ElementAverageHighLow
Temperature50.6 °F69.1 °F (1:52 pm)35.1 °F (2:52 am)
Dewpoint12.8 °F19.9 °F (1:52 am)1.9 °F (1:52 pm)
Humidity27.5 %52 % (1:52 am)7 % (1:52 pm)
Barometer30.15 in30.23 in (10:52 pm)30.08 in (3:52 am)
Wind Speed4.4 mph11.5 mph (10:52 am)
Weather ElementAverage
Visibility10 mi
Wind DirectionSSE (155.5 °)

Weather ElementTotal
Precipitation---
Heating Degree Days12.9 (Base 65)
Growing Degree Days2.1 (Base 50)
Averaged from 22 records on January 3, 2013
WEATHER CONDITIONS BREAKOUT
WIND DIRECTION BREAKOUT
WEATHER BY HOUR - JANUARY 3, 2013
[ °C ]   °F
Local TimeTemperatureDewpointHumidityBarometerVisibilityWind DirectionWind SpeedGust SpeedPrecipitationEventsConditions
1:52 AM36.0 °F19.9 °F52 %30.09 in10.0 miNNW (330°)5.8 mphClear
2:52 AM35.1 °F19.0 °F52 %30.09 in10.0 miNW (310°)5.8 mphClear
3:52 AM39.9 °F18.0 °F41 %30.08 in10.0 miNorth (350°)9.2 mphClear
4:52 AM36.0 °F18.0 °F48 %30.09 in10.0 miCalmClear
5:52 AM39.0 °F17.1 °F41 %30.10 in10.0 miNorth (10°)6.9 mphClear
6:52 AM39.0 °F17.1 °F41 %30.13 in10.0 miNNE (30°)5.8 mphClear
7:52 AM42.1 °F19.0 °F40 %30.15 in10.0 miCalmClear
8:52 AM59.0 °F18.0 °F20 %30.18 in10.0 miENE (60°)3.5 mphClear
9:52 AM64.0 °F17.1 °F16 %30.19 in10.0 miNNW (340°)8.1 mphClear
10:52 AM66.9 °F9.0 °F10 %30.18 in10.0 miNNW (330°)11.5 mphClear
11:52 AM66.9 °F5.0 °F9 %30.16 in10.0 miCalmClear
12:52 PM68.0 °F5.0 °F8 %30.13 in10.0 miWNW (290°)10.4 mphClear
1:52 PM69.1 °F1.9 °F7 %30.12 in10.0 miWNW (290°)9.2 mphClear
2:52 PM69.1 °F3.0 °F7 %30.13 in10.0 miWNW (300°)3.5 mphClear
3:52 PM68.0 °F3.9 °F8 %30.13 in10.0 miCalmClear
4:52 PM61.0 °F8.1 °F12 %30.14 in10.0 miNE (40°)5.8 mphClear
5:52 PM48.9 °F10.9 °F22 %30.17 in10.0 miSouth (180°)3.5 mphClear
6:52 PM44.1 °F12.0 °F27 %30.18 in10.0 miCalmClear
7:52 PM44.1 °F16.0 °F32 %30.19 in10.0 miWest (270°)4.6 mphClear
8:52 PM41.0 °F14.0 °F33 %30.20 in10.0 miCalmClear
10:52 PM36.0 °F14.0 °F41 %30.23 in10.0 miCalmClear
11:52 PM39.0 °F15.1 °F38 %30.23 in10.0 miWNW (290°)3.5 mphClear
Hourly data recorded from KTRM, located miles away from Palomar Mountain, California







STORIES FROM OUR PARTNERS